Flag for Germany Weather past 2 weeks in Schwäbisch Hall, Baden-Württemberg, Germany

Now
39 °F

Light rain. Overcast.


Feels Like: 34 °F
Forecast: 35 / 41 °F
Wind: 6 mph from Northwest

Location: Oehringen

Current Time: Mar 4, 2015 at 12:43:07 AM

Latest Report: Mar 4, 2015 at 12:00 AM


Visibility: 8 mi

Pressure: 30.18 "Hg

Humidity: 90%

Dew point: 36 °F

Location of Schwäbisch HallLocation

Historic Weather in Schwäbisch Hall — Graph

°F

Schwäbisch Hall temperature yesterday

Maximum temperature yesterday: 50 °F (at 3:00 PM)
Minimum temperature yesterday: 35 °F (at 7:00 AM)
Average temperature yesterday: 43 °F

Past Weeks' High & Low Weather Summary

 TemperatureHumidityPressure
High57 °F (Feb 20, 4:00 PM)100% (Feb 17, 5:00 AM)30.79 "Hg (Feb 17, 5:00 AM)
Low24 °F (Feb 20, 7:00 AM)34% (Feb 21, 1:00 AM)29.53 "Hg (Feb 21, 11:00 AM)
Average38 °F78%30.05 "Hg
* Reported Feb 16 11:00 PM — Mar 3 11:00 PM, Schwäbisch Hall, Weather by CustomWeather, © 2015

Note: Actual official high and low records may vary slightly from our data, if they occured in-between our weather recording intervals... More about our weather records

Advertising

Schwäbisch Hall weather history for previous 24 hours

 ConditionsComfort  
Time TempWeatherWind HumidityBarometerVisibility
11:00 PM
Tue, Mar 3
47 °FOvercast.7 mph53%30.11 "Hg40 mi
10:00 PM47 °FOvercast.6 mph52%30.10 "Hg28 mi
9:00 PM47 °FOvercast.5 mph53%30.10 "Hg28 mi
8:00 PM47 °FOvercast.3 mph54%30.10 "Hg31 mi
7:00 PM48 °FOvercast.5 mph49%30.10 "Hg37 mi
6:00 PM49 °FOvercast.5 mph46%30.10 "Hg43 mi
5:00 PM50 °FSunny.7 mph46%30.10 "Hg34 mi
4:00 PM50 °FOvercast.3 mph48%30.12 "Hg34 mi
3:00 PM50 °FPassing clouds.6 mph46%30.14 "Hg37 mi
2:00 PM48 °FPartly sunny.5 mph50%30.16 "Hg28 mi
1:00 PM47 °FSunny.8 mph50%30.19 "Hg22 mi
12:00 PM46 °FScattered clouds.6 mph55%30.20 "Hg31 mi
11:00 AM43 °FSunny.9 mph61%30.23 "Hg16 mi
10:00 AM41 °FSunny.8 mph63%30.23 "Hg16 mi
9:00 AM40 °FOvercast.5 mph68%30.23 "Hg22 mi
8:00 AM36 °FPassing clouds.3 mph77%30.22 "Hg19 mi
7:00 AM35 °FOvercast.3 mph78%30.21 "Hg19 mi
6:00 AM36 °FPassing clouds.3 mph75%30.21 "Hg22 mi
5:00 AM36 °FPassing clouds.5 mph76%30.20 "Hg28 mi
4:00 AM35 °FOvercast.3 mph79%30.20 "Hg22 mi
3:00 AM36 °FClear.6 mph79%30.19 "Hg25 mi
2:00 AM36 °FClear.6 mph81%30.18 "Hg25 mi
1:00 AM37 °FClear.7 mph79%30.16 "Hg25 mi
12:00 AM37 °FClear.8 mph74%30.13 "Hg28 mi
Weather by CustomWeather, © 2015

See weather overviewHow to use our weather pages